Time,TemperatureF,DewpointF,PressureIn,WindDirection,WindDirectionDegrees,WindSpeedMPH,WindSpeedGustMPH,Humidity,HourlyPrecipIn,Conditions,Clouds,dailyrainin,SoftwareType,DateUTC
2013-01-15 00:12:00,-7.0,-12.0,-100.00,SW,217,1.0,2.0,81,0.00,,,0.01,,2013-01-15 07:12:00,
2013-01-15 00:22:00,-7.0,-12.0,-100.00,SW,217,1.0,2.0,81,0.00,,,0.01,,2013-01-15 07:22:00,
2013-01-15 00:32:00,-7.0,-12.0,-100.00,SW,217,1.0,2.0,81,0.00,,,0.01,,2013-01-15 07:32:00,
2013-01-15 00:42:00,-7.0,-12.0,-100.00,SW,217,1.0,2.0,81,0.00,,,0.01,,2013-01-15 07:42:00,
2013-01-15 00:52:00,-7.0,-12.0,-100.00,SW,217,1.0,2.0,81,0.00,,,0.01,,2013-01-15 07:52:00,
2013-01-15 01:22:00,-9.0,-13.0,-100.00,NW,313,1.0,1.0,80,0.00,,,0.01,,2013-01-15 08:22:00,
2013-01-15 01:32:00,-9.0,-13.0,-100.00,NW,313,1.0,1.0,80,0.00,,,0.01,,2013-01-15 08:32:00,
2013-01-15 01:42:00,-9.0,-13.0,-100.00,NW,313,1.0,1.0,80,0.00,,,0.01,,2013-01-15 08:42:00,
2013-01-15 01:52:00,-9.0,-13.0,-100.00,NW,313,1.0,1.0,80,0.00,,,0.01,,2013-01-15 08:52:00,
2013-01-15 02:22:00,-7.0,-11.0,-100.00,North,9,1.0,1.0,81,0.00,,,0.01,,2013-01-15 09:22:00,
2013-01-15 02:33:00,-7.0,-11.0,-100.00,North,9,1.0,1.0,81,0.00,,,0.01,,2013-01-15 09:33:00,
2013-01-15 02:42:00,-7.0,-11.0,-100.00,North,9,1.0,1.0,81,0.00,,,0.01,,2013-01-15 09:42:00,
2013-01-15 02:52:00,-7.0,-11.0,-100.00,North,9,1.0,1.0,81,0.00,,,0.01,,2013-01-15 09:52:00,
2013-01-15 03:11:00,-6.0,-10.0,-100.00,North,350,1.0,2.0,81,0.00,,,0.01,,2013-01-15 10:11:00,
2013-01-15 03:22:00,-6.0,-10.0,-100.00,North,350,1.0,2.0,81,0.00,,,0.01,,2013-01-15 10:22:00,
2013-01-15 03:32:00,-6.0,-10.0,-100.00,North,350,1.0,2.0,81,0.00,,,0.01,,2013-01-15 10:32:00,
2013-01-15 03:42:00,-6.0,-10.0,-100.00,North,350,1.0,2.0,81,0.00,,,0.01,,2013-01-15 10:42:00,
2013-01-15 03:52:00,-6.0,-10.0,-100.00,North,350,1.0,2.0,81,0.00,,,0.01,,2013-01-15 10:52:00,
2013-01-15 04:12:00,-6.0,-10.0,-100.00,North,349,1.0,2.0,81,0.00,,,0.01,,2013-01-15 11:12:00,
2013-01-15 04:22:00,-6.0,-10.0,-100.00,North,349,1.0,2.0,81,0.00,,,0.01,,2013-01-15 11:22:00,
2013-01-15 04:32:00,-6.0,-10.0,-100.00,North,349,1.0,2.0,81,0.00,,,0.01,,2013-01-15 11:32:00,
2013-01-15 04:42:00,-6.0,-10.0,-100.00,North,349,1.0,2.0,81,0.00,,,0.01,,2013-01-15 11:42:00,
2013-01-15 04:52:00,-6.0,-10.0,-100.00,North,349,1.0,2.0,81,0.00,,,0.01,,2013-01-15 11:52:00,
2013-01-15 05:12:00,-5.0,-10.0,-100.00,NW,312,1.0,1.0,81,0.00,,,0.01,,2013-01-15 12:12:00,
2013-01-15 05:22:00,-5.0,-10.0,-100.00,NW,312,1.0,1.0,81,0.00,,,0.01,,2013-01-15 12:22:00,
2013-01-15 05:32:00,-5.0,-10.0,-100.00,NW,312,1.0,1.0,81,0.00,,,0.01,,2013-01-15 12:32:00,
2013-01-15 05:42:00,-5.0,-10.0,-100.00,NW,312,1.0,1.0,81,0.00,,,0.01,,2013-01-15 12:42:00,
2013-01-15 05:52:00,-5.0,-10.0,-100.00,NW,312,1.0,1.0,81,0.00,,,0.01,,2013-01-15 12:52:00,
2013-01-15 06:23:00,-5.0,-9.0,-100.00,NW,322,1.0,2.0,81,0.00,,,0.01,,2013-01-15 13:23:00,
2013-01-15 06:33:00,-5.0,-9.0,-100.00,NW,322,1.0,2.0,81,0.00,,,0.01,,2013-01-15 13:33:00,
2013-01-15 06:42:00,-5.0,-9.0,-100.00,NW,322,1.0,2.0,81,0.00,,,0.01,,2013-01-15 13:42:00,
2013-01-15 06:53:00,-5.0,-9.0,-100.00,NW,322,1.0,2.0,81,0.00,,,0.01,,2013-01-15 13:53:00,
2013-01-15 07:12:00,-5.0,-9.0,-100.00,WNW,284,1.0,2.0,81,0.00,,,0.01,,2013-01-15 14:12:00,
2013-01-15 07:23:00,-5.0,-9.0,-100.00,WNW,284,1.0,2.0,81,0.00,,,0.01,,2013-01-15 14:23:00,
2013-01-15 07:33:00,-5.0,-9.0,-100.00,WNW,284,1.0,2.0,81,0.00,,,0.01,,2013-01-15 14:33:00,
2013-01-15 07:42:00,-5.0,-9.0,-100.00,WNW,284,1.0,2.0,81,0.00,,,0.01,,2013-01-15 14:42:00,
2013-01-15 07:53:00,-5.0,-9.0,-100.00,WNW,284,1.0,2.0,81,0.00,,,0.01,,2013-01-15 14:53:00,
2013-01-15 08:12:00,-5.0,-9.0,-100.00,East,98,0.0,1.0,81,0.00,,,0.01,,2013-01-15 15:12:00,
2013-01-15 08:23:00,-5.0,-9.0,-100.00,East,98,0.0,1.0,81,0.00,,,0.01,,2013-01-15 15:23:00,
2013-01-15 08:33:00,-5.0,-9.0,-100.00,East,98,0.0,1.0,81,0.00,,,0.01,,2013-01-15 15:33:00,
2013-01-15 08:43:00,-5.0,-9.0,-100.00,East,98,0.0,1.0,81,0.00,,,0.01,,2013-01-15 15:43:00,
2013-01-15 08:52:00,-5.0,-9.0,-100.00,East,98,0.0,1.0,81,0.00,,,0.01,,2013-01-15 15:52:00,
2013-01-15 09:22:00,-4.0,-9.0,-100.00,WSW,240,1.0,1.0,81,0.00,,,0.01,,2013-01-15 16:22:00,
2013-01-15 09:33:00,-4.0,-9.0,-100.00,WSW,240,1.0,1.0,81,0.00,,,0.01,,2013-01-15 16:33:00,
2013-01-15 09:42:00,-4.0,-9.0,-100.00,WSW,240,1.0,1.0,81,0.00,,,0.01,,2013-01-15 16:42:00,
2013-01-15 09:53:00,-4.0,-9.0,-100.00,WSW,240,1.0,1.0,81,0.00,,,0.01,,2013-01-15 16:53:00,
2013-01-15 10:12:00,-2.0,-7.0,-100.00,WNW,295,2.0,4.0,80,0.00,,,0.01,,2013-01-15 17:12:00,
2013-01-15 10:22:00,-2.0,-7.0,-100.00,WNW,295,2.0,4.0,80,0.00,,,0.01,,2013-01-15 17:22:00,
2013-01-15 10:33:00,-2.0,-7.0,-100.00,WNW,295,2.0,4.0,80,0.00,,,0.01,,2013-01-15 17:33:00,
2013-01-15 10:42:00,-2.0,-7.0,-100.00,WNW,295,2.0,4.0,80,0.00,,,0.01,,2013-01-15 17:42:00,
2013-01-15 10:53:00,-2.0,-7.0,-100.00,WNW,295,2.0,4.0,80,0.00,,,0.01,,2013-01-15 17:53:00,
2013-01-15 11:12:00,4.0,-4.0,-100.00,SSE,161,1.0,1.0,71,0.00,,,0.01,,2013-01-15 18:12:00,
2013-01-15 11:23:00,4.0,-4.0,-100.00,SSE,161,1.0,1.0,71,0.00,,,0.01,,2013-01-15 18:23:00,
2013-01-15 11:33:00,4.0,-4.0,-100.00,SSE,161,1.0,1.0,71,0.00,,,0.01,,2013-01-15 18:33:00,
2013-01-15 11:42:00,4.0,-4.0,-100.00,SSE,161,1.0,1.0,71,0.00,,,0.01,,2013-01-15 18:42:00,
2013-01-15 11:52:00,4.0,-4.0,-100.00,SSE,161,1.0,1.0,71,0.00,,,0.01,,2013-01-15 18:52:00,
2013-01-15 12:12:00,6.0,-2.0,-100.00,WSW,238,2.0,5.0,70,0.00,,,0.01,,2013-01-15 19:12:00,
2013-01-15 12:22:00,6.0,-2.0,-100.00,WSW,238,2.0,5.0,70,0.00,,,0.01,,2013-01-15 19:22:00,
2013-01-15 12:33:00,6.0,-2.0,-100.00,WSW,238,2.0,5.0,70,0.00,,,0.01,,2013-01-15 19:33:00,
2013-01-15 12:42:00,6.0,-2.0,-100.00,WSW,238,2.0,5.0,70,0.00,,,0.01,,2013-01-15 19:42:00,
2013-01-15 12:52:00,6.0,-2.0,-100.00,WSW,238,2.0,5.0,70,0.00,,,0.01,,2013-01-15 19:52:00,
2013-01-15 13:23:00,6.0,-1.0,-100.00,WSW,243,4.0,6.0,70,0.00,,,0.01,,2013-01-15 20:23:00,
2013-01-15 13:33:00,6.0,-1.0,-100.00,WSW,243,4.0,6.0,70,0.00,,,0.01,,2013-01-15 20:33:00,
2013-01-15 13:43:00,6.0,-1.0,-100.00,WSW,243,4.0,6.0,70,0.00,,,0.01,,2013-01-15 20:43:00,
2013-01-15 13:52:00,6.0,-1.0,-100.00,WSW,243,4.0,6.0,70,0.00,,,0.01,,2013-01-15 20:52:00,
2013-01-15 14:12:00,9.0,0.0,-100.00,SSW,198,4.0,7.0,66,0.00,,,0.01,,2013-01-15 21:12:00,
2013-01-15 14:22:00,9.0,0.0,-100.00,SSW,198,4.0,7.0,66,0.00,,,0.01,,2013-01-15 21:22:00,
2013-01-15 14:33:00,9.0,0.0,-100.00,SSW,198,4.0,7.0,66,0.00,,,0.01,,2013-01-15 21:33:00,
2013-01-15 14:42:00,9.0,0.0,-100.00,SSW,198,4.0,7.0,66,0.00,,,0.01,,2013-01-15 21:42:00,
2013-01-15 14:52:00,9.0,0.0,-100.00,SSW,198,4.0,7.0,66,0.00,,,0.01,,2013-01-15 21:52:00,
2013-01-15 15:12:00,11.0,2.0,-100.00,SSW,213,4.0,9.0,66,0.00,,,0.01,,2013-01-15 22:12:00,
2013-01-15 15:22:00,11.0,2.0,-100.00,SSW,213,4.0,9.0,66,0.00,,,0.01,,2013-01-15 22:22:00,
2013-01-15 15:32:00,11.0,2.0,-100.00,SSW,213,4.0,9.0,66,0.00,,,0.01,,2013-01-15 22:32:00,
2013-01-15 15:42:00,11.0,2.0,-100.00,SSW,213,4.0,9.0,66,0.00,,,0.01,,2013-01-15 22:42:00,
2013-01-15 15:52:00,11.0,2.0,-100.00,SSW,213,4.0,9.0,66,0.00,,,0.01,,2013-01-15 22:52:00,
2013-01-15 16:12:00,10.0,3.0,-100.00,SSW,201,5.0,7.0,73,0.00,,,0.01,,2013-01-15 23:12:00,
2013-01-15 16:22:00,10.0,3.0,-100.00,SSW,201,5.0,7.0,73,0.00,,,0.01,,2013-01-15 23:22:00,
2013-01-15 16:32:00,10.0,3.0,-100.00,SSW,201,5.0,7.0,73,0.00,,,0.01,,2013-01-15 23:32:00,
2013-01-15 16:42:00,10.0,3.0,-100.00,SSW,201,5.0,7.0,73,0.00,,,0.01,,2013-01-15 23:42:00,
2013-01-15 16:52:00,10.0,3.0,-100.00,SSW,201,5.0,7.0,73,0.00,,,0.01,,2013-01-15 23:52:00,
2013-01-15 17:22:00,9.0,3.0,-100.00,SSW,196,5.0,8.0,79,0.00,,,0.01,,2013-01-16 00:22:00,
2013-01-15 17:32:00,9.0,3.0,-100.00,SSW,196,5.0,8.0,79,0.00,,,0.01,,2013-01-16 00:32:00,
2013-01-15 17:42:00,9.0,3.0,-100.00,SSW,196,5.0,8.0,79,0.00,,,0.01,,2013-01-16 00:42:00,
2013-01-15 17:52:00,9.0,3.0,-100.00,SSW,196,5.0,8.0,79,0.00,,,0.01,,2013-01-16 00:52:00,
2013-01-15 18:12:00,7.0,3.0,-100.00,SSW,197,4.0,6.0,83,0.00,,,0.01,,2013-01-16 01:12:00,
2013-01-15 18:22:00,7.0,3.0,-100.00,SSW,197,4.0,6.0,83,0.00,,,0.01,,2013-01-16 01:22:00,
2013-01-15 18:33:00,7.0,3.0,-100.00,SSW,197,4.0,6.0,83,0.00,,,0.01,,2013-01-16 01:33:00,
2013-01-15 18:42:00,7.0,3.0,-100.00,SSW,197,4.0,6.0,83,0.00,,,0.01,,2013-01-16 01:42:00,
2013-01-15 18:52:00,7.0,3.0,-100.00,SSW,197,4.0,6.0,83,0.00,,,0.01,,2013-01-16 01:52:00,
2013-01-15 19:22:00,6.0,3.0,-100.00,SSW,210,2.0,5.0,86,0.00,,,0.01,,2013-01-16 02:22:00,
2013-01-15 19:32:00,6.0,3.0,-100.00,SSW,210,2.0,5.0,86,0.00,,,0.01,,2013-01-16 02:32:00,
2013-01-15 19:42:00,6.0,3.0,-100.00,SSW,210,2.0,5.0,86,0.00,,,0.01,,2013-01-16 02:42:00,
2013-01-15 19:52:00,6.0,3.0,-100.00,SSW,210,2.0,5.0,86,0.00,,,0.01,,2013-01-16 02:52:00,
2013-01-15 20:12:00,6.0,3.0,-100.00,SSE,168,1.0,2.0,86,0.00,,,0.01,,2013-01-16 03:12:00,
2013-01-15 20:22:00,6.0,3.0,-100.00,SSE,168,1.0,2.0,86,0.00,,,0.01,,2013-01-16 03:22:00,
2013-01-15 20:32:00,6.0,3.0,-100.00,SSE,168,1.0,2.0,86,0.00,,,0.01,,2013-01-16 03:32:00,
2013-01-15 20:42:00,6.0,3.0,-100.00,SSE,168,1.0,2.0,86,0.00,,,0.01,,2013-01-16 03:42:00,
2013-01-15 20:52:00,6.0,3.0,-100.00,SSE,168,1.0,2.0,86,0.00,,,0.01,,2013-01-16 03:52:00,
2013-01-15 21:12:00,6.0,3.0,-100.00,SSW,197,1.0,2.0,86,0.00,,,0.00,,2013-01-16 04:12:00,
2013-01-15 21:22:00,6.0,3.0,-100.00,SSW,197,1.0,2.0,86,0.00,,,0.00,,2013-01-16 04:22:00,
2013-01-15 21:32:00,6.0,3.0,-100.00,SSW,197,1.0,2.0,86,0.00,,,0.00,,2013-01-16 04:32:00,
2013-01-15 21:42:00,6.0,3.0,-100.00,SSW,197,1.0,2.0,86,0.00,,,0.00,,2013-01-16 04:42:00,
2013-01-15 21:52:00,6.0,3.0,-100.00,SSW,197,1.0,2.0,86,0.00,,,0.00,,2013-01-16 04:52:00,
2013-01-15 22:12:00,6.0,3.0,-100.00,WSW,249,2.0,4.0,86,0.00,,,0.00,,2013-01-16 05:12:00,
2013-01-15 22:22:00,6.0,3.0,-100.00,WSW,249,2.0,4.0,86,0.00,,,0.00,,2013-01-16 05:22:00,
2013-01-15 22:32:00,6.0,3.0,-100.00,WSW,249,2.0,4.0,86,0.00,,,0.00,,2013-01-16 05:32:00,
2013-01-15 22:42:00,6.0,3.0,-100.00,WSW,249,2.0,4.0,86,0.00,,,0.00,,2013-01-16 05:42:00,
2013-01-15 22:52:00,6.0,3.0,-100.00,WSW,249,2.0,4.0,86,0.00,,,0.00,,2013-01-16 05:52:00,
2013-01-15 23:22:00,6.0,3.0,-100.00,SSW,206,2.0,4.0,86,0.00,,,0.00,,2013-01-16 06:22:00,
2013-01-15 23:32:00,6.0,3.0,-100.00,SSW,206,2.0,4.0,86,0.00,,,0.00,,2013-01-16 06:32:00,
2013-01-15 23:42:00,6.0,3.0,-100.00,SSW,206,2.0,4.0,86,0.00,,,0.00,,2013-01-16 06:42:00,
2013-01-15 23:52:00,6.0,3.0,-100.00,SSW,206,2.0,4.0,86,0.00,,,0.00,,2013-01-16 06:52:00,